Year,Month,Day,Hour,Minute,Value (Times are PST for windgust in km/hr)
2016,03,12,00,02,1.60
2016,03,12,00,04,1.60
2016,03,12,00,21,4.80
2016,03,12,00,22,4.80
2016,03,12,00,23,3.20
2016,03,12,01,21,1.60
2016,03,12,01,24,4.80
2016,03,12,01,26,1.60
2016,03,12,01,30,3.20
2016,03,12,01,54,1.60
2016,03,12,01,59,6.40
2016,03,12,02,00,4.80
2016,03,12,02,35,4.80
2016,03,12,02,36,3.20
2016,03,12,02,37,3.20
2016,03,12,02,38,3.20
2016,03,12,02,39,1.60
2016,03,12,02,40,4.80
2016,03,12,02,41,4.80
2016,03,12,02,42,4.80
2016,03,12,02,43,4.80
2016,03,12,02,55,1.60
2016,03,12,02,56,1.60
2016,03,12,03,15,4.80
2016,03,12,03,16,6.40
2016,03,12,03,17,6.40
2016,03,12,03,18,6.40
2016,03,12,03,19,4.80
2016,03,12,03,20,4.80
2016,03,12,03,26,1.60
2016,03,12,03,27,3.20
2016,03,12,03,28,4.80
2016,03,12,03,42,4.80
2016,03,12,03,43,6.40
2016,03,12,03,44,3.20
2016,03,12,03,53,1.60
2016,03,12,03,54,1.60
2016,03,12,03,55,3.20
2016,03,12,03,56,3.20
2016,03,12,03,57,4.80
2016,03,12,04,12,3.20
2016,03,12,04,13,1.60
2016,03,12,04,22,4.80
2016,03,12,04,23,3.20
2016,03,12,04,24,3.20
2016,03,12,04,25,3.20
2016,03,12,04,30,3.20
2016,03,12,04,48,1.60
2016,03,12,04,53,1.60
2016,03,12,04,55,4.80
2016,03,12,04,56,9.60
2016,03,12,04,57,8.10
2016,03,12,04,58,9.60
2016,03,12,04,59,6.40
2016,03,12,05,00,6.40
2016,03,12,05,01,8.10
2016,03,12,05,02,6.40
2016,03,12,05,03,6.40
2016,03,12,05,04,9.60
2016,03,12,05,05,11.30
2016,03,12,05,06,9.60
2016,03,12,05,07,9.60
2016,03,12,05,08,9.60
2016,03,12,05,09,8.10
2016,03,12,05,10,6.40
2016,03,12,05,11,8.10
2016,03,12,05,12,9.60
2016,03,12,05,13,6.40
2016,03,12,05,14,9.60
2016,03,12,05,15,6.40
2016,03,12,05,16,6.40
2016,03,12,05,17,6.40
2016,03,12,05,18,4.80
2016,03,12,05,19,1.60
2016,03,12,05,25,1.60
2016,03,12,05,40,1.60
2016,03,12,05,42,3.20
2016,03,12,05,43,1.60
2016,03,12,05,44,3.20
2016,03,12,05,45,3.20
2016,03,12,06,12,1.60
2016,03,12,06,23,1.60
2016,03,12,06,28,3.20
2016,03,12,06,29,1.60
2016,03,12,06,41,6.40
2016,03,12,06,42,8.10
2016,03,12,06,43,6.40
2016,03,12,06,44,8.10
2016,03,12,06,45,3.20
2016,03,12,06,46,4.80
2016,03,12,06,47,4.80
2016,03,12,06,48,4.80
2016,03,12,06,49,9.60
2016,03,12,06,50,9.60
2016,03,12,06,51,14.50
2016,03,12,06,52,14.50
2016,03,12,06,53,19.30
2016,03,12,06,54,16.10
2016,03,12,06,55,12.90
2016,03,12,06,56,14.50
2016,03,12,06,57,12.90
2016,03,12,06,58,11.30
2016,03,12,06,59,14.50
2016,03,12,07,00,16.10
2016,03,12,07,01,11.30
2016,03,12,07,02,11.30
2016,03,12,07,03,16.10
2016,03,12,07,04,19.30
2016,03,12,07,05,12.90
2016,03,12,07,06,19.30
2016,03,12,07,07,17.70
2016,03,12,07,08,16.10
2016,03,12,07,09,12.90
2016,03,12,07,10,14.50
2016,03,12,07,11,20.90
2016,03,12,07,12,12.90
2016,03,12,07,13,20.90
2016,03,12,07,14,25.70
2016,03,12,07,15,14.50
2016,03,12,07,16,19.30
2016,03,12,07,17,17.70
2016,03,12,07,18,12.90
2016,03,12,07,19,14.50
2016,03,12,07,20,14.50
2016,03,12,07,21,12.90
2016,03,12,07,22,12.90
2016,03,12,07,23,14.50
2016,03,12,07,24,17.70
2016,03,12,07,25,16.10
2016,03,12,07,26,17.70
2016,03,12,07,27,19.30
2016,03,12,07,28,16.10
2016,03,12,07,29,14.50
2016,03,12,07,30,11.30
2016,03,12,07,31,16.10
2016,03,12,07,32,19.30
2016,03,12,07,33,19.30
2016,03,12,07,34,14.50
2016,03,12,07,35,20.90
2016,03,12,07,36,19.30
2016,03,12,07,37,19.30
2016,03,12,07,38,17.70
2016,03,12,07,39,25.70
2016,03,12,07,40,25.70
2016,03,12,07,41,20.90
2016,03,12,07,42,22.50
2016,03,12,07,43,27.40
2016,03,12,07,44,16.10
2016,03,12,07,45,17.70
2016,03,12,07,46,16.10
2016,03,12,07,47,14.50
2016,03,12,07,48,17.70
2016,03,12,07,49,19.30
2016,03,12,07,50,22.50
2016,03,12,07,51,25.70
2016,03,12,07,52,19.30
2016,03,12,07,53,17.70
2016,03,12,07,54,22.50
2016,03,12,07,55,22.50
2016,03,12,07,56,20.90
2016,03,12,07,57,19.30
2016,03,12,07,58,14.50
2016,03,12,07,59,14.50
2016,03,12,08,00,19.30
2016,03,12,08,01,14.50
2016,03,12,08,02,12.90
2016,03,12,08,03,19.30
2016,03,12,08,04,19.30
2016,03,12,08,05,17.70
2016,03,12,08,06,16.10
2016,03,12,08,07,14.50
2016,03,12,08,08,20.90
2016,03,12,08,09,20.90
2016,03,12,08,10,17.70
2016,03,12,08,11,11.30
2016,03,12,08,12,12.90
2016,03,12,08,13,19.30
2016,03,12,08,14,17.70
2016,03,12,08,15,14.50
2016,03,12,08,16,19.30
2016,03,12,08,17,20.90
2016,03,12,08,18,17.70
2016,03,12,08,19,16.10
2016,03,12,08,20,17.70
2016,03,12,08,21,14.50
2016,03,12,08,22,16.10
2016,03,12,08,23,16.10
2016,03,12,08,24,14.50
2016,03,12,08,25,9.60
2016,03,12,08,26,8.10
2016,03,12,08,27,11.30
2016,03,12,08,28,16.10
2016,03,12,08,29,9.60
2016,03,12,08,30,12.90
2016,03,12,08,31,16.10
2016,03,12,08,32,14.50
2016,03,12,08,33,19.30
2016,03,12,08,34,16.10
2016,03,12,08,35,19.30
2016,03,12,08,36,16.10
2016,03,12,08,37,14.50
2016,03,12,08,38,11.30
2016,03,12,08,39,17.70
2016,03,12,08,40,22.50
2016,03,12,08,41,17.70
2016,03,12,08,42,14.50
2016,03,12,08,43,17.70
2016,03,12,08,44,17.70
2016,03,12,08,45,9.60
2016,03,12,08,46,20.90
2016,03,12,08,47,24.20
2016,03,12,08,48,14.50
2016,03,12,08,49,19.30
2016,03,12,08,50,19.30
2016,03,12,08,51,17.70
2016,03,12,08,52,17.70
2016,03,12,08,53,20.90
2016,03,12,08,54,20.90
2016,03,12,08,55,14.50
2016,03,12,08,56,16.10
2016,03,12,08,57,12.90
2016,03,12,08,58,12.90
2016,03,12,08,59,9.60
2016,03,12,09,00,9.60
2016,03,12,09,01,11.30
2016,03,12,09,02,14.50
2016,03,12,09,03,17.70
2016,03,12,09,04,17.70
2016,03,12,09,05,19.30
2016,03,12,09,06,12.90
2016,03,12,09,07,14.50
2016,03,12,09,08,16.10
2016,03,12,09,09,20.90
2016,03,12,09,10,24.20
2016,03,12,09,11,24.20
2016,03,12,09,12,14.50
2016,03,12,09,13,12.90
2016,03,12,09,14,12.90
2016,03,12,09,15,19.30
2016,03,12,09,16,14.50
2016,03,12,09,17,14.50
2016,03,12,09,18,12.90
2016,03,12,09,19,16.10
2016,03,12,09,20,25.70
2016,03,12,09,21,11.30
2016,03,12,09,22,17.70
2016,03,12,09,23,12.90
2016,03,12,09,24,9.60
2016,03,12,09,25,14.50
2016,03,12,09,26,8.10
2016,03,12,09,27,8.10
2016,03,12,09,28,8.10
2016,03,12,09,29,8.10
2016,03,12,09,30,19.30
2016,03,12,09,31,20.90
2016,03,12,09,32,24.20
2016,03,12,09,33,19.30
2016,03,12,09,34,19.30
2016,03,12,09,35,22.50
2016,03,12,09,36,22.50
2016,03,12,09,37,24.20
2016,03,12,09,38,24.20
2016,03,12,09,39,19.30
2016,03,12,09,40,20.90
2016,03,12,09,41,17.70
2016,03,12,09,42,24.20
2016,03,12,09,43,19.30
2016,03,12,09,44,22.50
2016,03,12,09,45,17.70
2016,03,12,09,46,14.50
2016,03,12,09,47,12.90
2016,03,12,09,48,17.70
2016,03,12,09,49,16.10
2016,03,12,09,50,12.90
2016,03,12,09,51,19.30
2016,03,12,09,52,19.30
2016,03,12,09,53,19.30
2016,03,12,09,54,19.30
2016,03,12,09,55,19.30
2016,03,12,09,56,16.10
2016,03,12,09,57,14.50
2016,03,12,09,58,9.60
2016,03,12,09,59,12.90
2016,03,12,10,00,9.60
2016,03,12,10,01,12.90
2016,03,12,10,02,25.70
2016,03,12,10,03,16.10
2016,03,12,10,04,19.30
2016,03,12,10,05,17.70
2016,03,12,10,06,22.50
2016,03,12,10,07,17.70
2016,03,12,10,08,14.50
2016,03,12,10,09,24.20
2016,03,12,10,10,27.40
2016,03,12,10,11,22.50
2016,03,12,10,12,22.50
2016,03,12,10,13,20.90
2016,03,12,10,14,19.30
2016,03,12,10,15,30.60
2016,03,12,10,16,22.50
2016,03,12,10,17,27.40
2016,03,12,10,18,19.30
2016,03,12,10,19,29.00
2016,03,12,10,20,25.70
2016,03,12,10,21,24.20
2016,03,12,10,22,25.70
2016,03,12,10,23,24.20
2016,03,12,10,24,27.40
2016,03,12,10,25,27.40
2016,03,12,10,26,17.70
2016,03,12,10,27,20.90
2016,03,12,10,28,22.50
2016,03,12,10,29,22.50
2016,03,12,10,30,17.70
2016,03,12,10,31,32.20
2016,03,12,10,32,33.80
2016,03,12,10,33,22.50
2016,03,12,10,34,17.70
2016,03,12,10,35,16.10
2016,03,12,10,36,22.50
2016,03,12,10,37,17.70
2016,03,12,10,38,12.90
2016,03,12,10,39,12.90
2016,03,12,10,40,14.50
2016,03,12,10,41,22.50
2016,03,12,10,42,22.50
2016,03,12,10,43,14.50
2016,03,12,10,44,14.50
2016,03,12,10,45,16.10
2016,03,12,10,46,22.50
2016,03,12,10,47,27.40
2016,03,12,10,48,29.00
2016,03,12,10,49,20.90
2016,03,12,10,50,22.50
2016,03,12,10,51,24.20
2016,03,12,10,52,19.30
2016,03,12,10,53,25.70
2016,03,12,10,54,27.40
2016,03,12,10,55,22.50
2016,03,12,10,56,35.40
2016,03,12,10,57,20.90
2016,03,12,10,58,30.60
2016,03,12,10,59,22.50
2016,03,12,11,00,19.30
2016,03,12,11,01,17.70
2016,03,12,11,02,25.70
2016,03,12,11,03,30.60
2016,03,12,11,04,16.10
2016,03,12,11,05,12.90
2016,03,12,11,06,19.30
2016,03,12,11,07,11.30
2016,03,12,11,08,14.50
2016,03,12,11,09,17.70
2016,03,12,11,10,12.90
2016,03,12,11,11,17.70
2016,03,12,11,12,16.10
2016,03,12,11,13,24.20
2016,03,12,11,14,19.30
2016,03,12,11,15,17.70
2016,03,12,11,16,17.70
2016,03,12,11,17,22.50
2016,03,12,11,18,22.50
2016,03,12,11,19,19.30
2016,03,12,11,20,19.30
2016,03,12,11,21,16.10
2016,03,12,11,22,9.60
2016,03,12,11,23,6.40
2016,03,12,11,24,6.40
2016,03,12,11,25,14.50
2016,03,12,11,26,9.60
2016,03,12,11,27,22.50
2016,03,12,11,28,22.50
2016,03,12,11,29,11.30
2016,03,12,11,30,9.60
2016,03,12,11,31,8.10
2016,03,12,11,32,8.10
2016,03,12,11,33,6.40
2016,03,12,11,34,6.40
2016,03,12,11,35,8.10
2016,03,12,11,36,11.30
2016,03,12,11,37,8.10
2016,03,12,11,38,8.10
2016,03,12,11,39,14.50
2016,03,12,11,40,12.90
2016,03,12,11,41,11.30
2016,03,12,11,42,9.60
2016,03,12,11,43,12.90
2016,03,12,11,44,11.30
2016,03,12,11,45,17.70
2016,03,12,11,46,16.10
2016,03,12,11,47,17.70
2016,03,12,11,48,17.70
2016,03,12,11,49,12.90
2016,03,12,11,50,11.30
2016,03,12,11,51,17.70
2016,03,12,11,52,17.70
2016,03,12,11,53,17.70
2016,03,12,11,54,14.50
2016,03,12,11,55,17.70
2016,03,12,11,56,16.10
2016,03,12,11,57,17.70
2016,03,12,11,58,11.30
2016,03,12,11,59,14.50
2016,03,12,12,00,9.60
2016,03,12,12,01,9.60
2016,03,12,12,02,8.10
2016,03,12,12,03,12.90
2016,03,12,12,04,12.90
2016,03,12,12,05,9.60
2016,03,12,12,06,8.10
2016,03,12,12,07,8.10
2016,03,12,12,08,6.40
2016,03,12,12,09,12.90
2016,03,12,12,10,9.60
2016,03,12,12,11,11.30
2016,03,12,12,12,12.90
2016,03,12,12,13,12.90
2016,03,12,12,14,14.50
2016,03,12,12,15,14.50
2016,03,12,12,16,16.10
2016,03,12,12,17,9.60
2016,03,12,12,18,4.80
2016,03,12,12,19,6.40
2016,03,12,12,20,6.40
2016,03,12,12,21,9.60
2016,03,12,12,22,8.10
2016,03,12,12,23,8.10
2016,03,12,12,24,8.10
2016,03,12,12,25,1.60
2016,03,12,12,26,6.40
2016,03,12,12,27,9.60
2016,03,12,12,28,6.40
2016,03,12,12,29,4.80
2016,03,12,12,30,11.30
2016,03,12,12,31,12.90
2016,03,12,12,32,9.60
2016,03,12,12,33,6.40
2016,03,12,12,34,11.30
2016,03,12,12,35,12.90
2016,03,12,12,36,8.10
2016,03,12,12,37,14.50
2016,03,12,12,38,14.50
2016,03,12,12,39,9.60
2016,03,12,12,40,6.40
2016,03,12,12,41,8.10
2016,03,12,12,42,6.40
2016,03,12,12,43,4.80
2016,03,12,12,44,9.60
2016,03,12,12,45,9.60
2016,03,12,12,46,9.60
2016,03,12,12,47,12.90
2016,03,12,12,48,9.60
2016,03,12,12,49,9.60
2016,03,12,12,50,14.50
2016,03,12,12,51,11.30
2016,03,12,12,52,12.90
2016,03,12,12,53,14.50
2016,03,12,12,54,11.30
2016,03,12,12,55,8.10
2016,03,12,12,56,4.80
2016,03,12,12,57,6.40
2016,03,12,12,58,8.10
2016,03,12,12,59,9.60
2016,03,12,13,00,6.40
2016,03,12,13,01,9.60
2016,03,12,13,02,8.10
2016,03,12,13,03,9.60
2016,03,12,13,04,16.10
2016,03,12,13,05,16.10
2016,03,12,13,06,19.30
2016,03,12,13,07,11.30
2016,03,12,13,08,12.90
2016,03,12,13,09,8.10
2016,03,12,13,10,14.50
2016,03,12,13,11,12.90
2016,03,12,13,12,6.40
2016,03,12,13,13,14.50
2016,03,12,13,14,11.30
2016,03,12,13,15,9.60
2016,03,12,13,16,9.60
2016,03,12,13,17,9.60
2016,03,12,13,18,9.60
2016,03,12,13,19,9.60
2016,03,12,13,20,6.40
2016,03,12,13,21,9.60
2016,03,12,13,22,12.90
2016,03,12,13,23,11.30
2016,03,12,13,24,6.40
2016,03,12,13,25,14.50
2016,03,12,13,26,12.90
2016,03,12,13,27,16.10
2016,03,12,13,28,12.90
2016,03,12,13,29,9.60
2016,03,12,13,30,12.90
2016,03,12,13,31,9.60
2016,03,12,13,32,9.60
2016,03,12,13,33,8.10
2016,03,12,13,34,12.90
2016,03,12,13,35,16.10
2016,03,12,13,36,12.90
2016,03,12,13,37,14.50
2016,03,12,13,38,12.90
2016,03,12,13,39,9.60
2016,03,12,13,40,8.10
2016,03,12,13,41,4.80
2016,03,12,13,42,14.50
2016,03,12,13,43,12.90
2016,03,12,13,44,14.50
2016,03,12,13,45,14.50
2016,03,12,13,46,16.10
2016,03,12,13,47,16.10
2016,03,12,13,48,22.50
2016,03,12,13,49,17.70
2016,03,12,13,50,11.30
2016,03,12,13,51,11.30
2016,03,12,13,52,16.10
2016,03,12,13,53,12.90
2016,03,12,13,54,16.10
2016,03,12,13,55,20.90
2016,03,12,13,56,19.30
2016,03,12,13,57,9.60
2016,03,12,13,58,24.20
2016,03,12,13,59,20.90
2016,03,12,14,00,16.10
2016,03,12,14,01,16.10
2016,03,12,14,02,12.90
2016,03,12,14,03,12.90
2016,03,12,14,04,17.70
2016,03,12,14,05,16.10
2016,03,12,14,06,14.50
2016,03,12,14,07,19.30
2016,03,12,14,08,19.30
2016,03,12,14,09,20.90
2016,03,12,14,10,17.70
2016,03,12,14,11,9.60
2016,03,12,14,12,8.10
2016,03,12,14,13,14.50
2016,03,12,14,14,12.90
2016,03,12,14,15,12.90
2016,03,12,14,16,16.10
2016,03,12,14,17,19.30
2016,03,12,14,18,8.10
2016,03,12,14,19,16.10
2016,03,12,14,20,20.90
2016,03,12,14,21,14.50
2016,03,12,14,22,20.90
2016,03,12,14,23,16.10
2016,03,12,14,24,14.50
2016,03,12,14,25,19.30
2016,03,12,14,26,19.30
2016,03,12,14,27,16.10
2016,03,12,14,28,20.90
2016,03,12,14,29,12.90
2016,03,12,14,30,8.10
2016,03,12,14,31,9.60
2016,03,12,14,32,14.50
2016,03,12,14,33,17.70
2016,03,12,14,34,9.60
2016,03,12,14,35,12.90
2016,03,12,14,36,6.40
2016,03,12,14,37,8.10
2016,03,12,14,38,11.30
2016,03,12,14,39,11.30
2016,03,12,14,40,20.90
2016,03,12,14,41,17.70
2016,03,12,14,42,12.90
2016,03,12,14,43,14.50
2016,03,12,14,44,16.10
2016,03,12,14,45,14.50
2016,03,12,14,46,8.10
2016,03,12,14,47,14.50
2016,03,12,14,48,14.50
2016,03,12,14,49,16.10
2016,03,12,14,50,14.50
2016,03,12,14,51,17.70
2016,03,12,14,52,17.70
2016,03,12,14,53,14.50
2016,03,12,14,54,12.90
2016,03,12,14,55,16.10
2016,03,12,14,56,19.30
2016,03,12,14,57,19.30
2016,03,12,14,58,12.90
2016,03,12,14,59,16.10
2016,03,12,15,00,11.30
2016,03,12,15,01,8.10
2016,03,12,15,02,6.40
2016,03,12,15,03,6.40
2016,03,12,15,04,11.30
2016,03,12,15,05,9.60
2016,03,12,15,06,11.30
2016,03,12,15,07,20.90
2016,03,12,15,08,27.40
2016,03,12,15,09,16.10
2016,03,12,15,10,6.40
2016,03,12,15,11,11.30
2016,03,12,15,12,9.60
2016,03,12,15,13,12.90
2016,03,12,15,14,9.60
2016,03,12,15,15,16.10
2016,03,12,15,16,19.30
2016,03,12,15,17,16.10
2016,03,12,15,18,11.30
2016,03,12,15,19,14.50
2016,03,12,15,20,11.30
2016,03,12,15,21,14.50
2016,03,12,15,22,16.10
2016,03,12,15,23,8.10
2016,03,12,15,24,16.10
2016,03,12,15,25,9.60
2016,03,12,15,26,12.90
2016,03,12,15,27,22.50
2016,03,12,15,28,29.00
2016,03,12,15,29,9.60
2016,03,12,15,30,19.30
2016,03,12,15,31,12.90
2016,03,12,15,32,20.90
2016,03,12,15,33,24.20
2016,03,12,15,34,14.50
2016,03,12,15,35,11.30
2016,03,12,15,36,14.50
2016,03,12,15,37,14.50
2016,03,12,15,38,30.60
2016,03,12,15,39,16.10
2016,03,12,15,40,22.50
2016,03,12,15,41,20.90
2016,03,12,15,42,20.90
2016,03,12,15,43,17.70
2016,03,12,15,44,30.60
2016,03,12,15,45,27.40
2016,03,12,15,46,24.20
2016,03,12,15,47,20.90
2016,03,12,15,48,12.90
2016,03,12,15,49,12.90
2016,03,12,15,50,14.50
2016,03,12,15,51,8.10
2016,03,12,15,52,8.10
2016,03,12,15,53,6.40
2016,03,12,15,54,9.60
2016,03,12,15,55,11.30
2016,03,12,15,56,8.10
2016,03,12,15,57,9.60
2016,03,12,15,58,9.60
2016,03,12,15,59,9.60
2016,03,12,16,00,9.60
2016,03,12,16,01,11.30
2016,03,12,16,02,9.60
2016,03,12,16,03,11.30
2016,03,12,16,04,4.80
2016,03,12,16,05,11.30
2016,03,12,16,06,8.10
2016,03,12,16,07,9.60
2016,03,12,16,08,12.90
2016,03,12,16,09,12.90
2016,03,12,16,10,9.60
2016,03,12,16,11,9.60
2016,03,12,16,12,14.50
2016,03,12,16,13,9.60
2016,03,12,16,14,12.90
2016,03,12,16,15,16.10
2016,03,12,16,16,9.60
2016,03,12,16,17,12.90
2016,03,12,16,18,11.30
2016,03,12,16,19,12.90
2016,03,12,16,20,9.60
2016,03,12,16,21,12.90
2016,03,12,16,22,8.10
2016,03,12,16,23,12.90
2016,03,12,16,24,11.30
2016,03,12,16,25,12.90
2016,03,12,16,26,9.60
2016,03,12,16,27,20.90
2016,03,12,16,28,17.70
2016,03,12,16,29,17.70
2016,03,12,16,30,14.50
2016,03,12,16,31,14.50
2016,03,12,16,32,16.10
2016,03,12,16,33,22.50
2016,03,12,16,34,14.50
2016,03,12,16,35,17.70
2016,03,12,16,36,9.60
2016,03,12,16,37,17.70
2016,03,12,16,38,12.90
2016,03,12,16,39,11.30
2016,03,12,16,40,9.60
2016,03,12,16,41,16.10
2016,03,12,16,42,19.30
2016,03,12,16,43,12.90
2016,03,12,16,44,14.50
2016,03,12,16,45,14.50
2016,03,12,16,46,12.90
2016,03,12,16,47,14.50
2016,03,12,16,48,12.90
2016,03,12,16,49,14.50
2016,03,12,16,50,14.50
2016,03,12,16,51,12.90
2016,03,12,16,52,11.30
2016,03,12,16,53,12.90
2016,03,12,16,54,19.30
2016,03,12,16,55,17.70
2016,03,12,16,56,16.10
2016,03,12,16,57,16.10
2016,03,12,16,58,17.70
2016,03,12,16,59,12.90
2016,03,12,17,00,12.90
2016,03,12,17,01,12.90
2016,03,12,17,02,14.50
2016,03,12,17,03,12.90
2016,03,12,17,04,14.50
2016,03,12,17,05,14.50
2016,03,12,17,06,11.30
2016,03,12,17,07,11.30
2016,03,12,17,08,12.90
2016,03,12,17,09,14.50
2016,03,12,17,10,12.90
2016,03,12,17,11,12.90
2016,03,12,17,12,12.90
2016,03,12,17,13,6.40
2016,03,12,17,14,8.10
2016,03,12,17,15,8.10
2016,03,12,17,16,4.80
2016,03,12,17,17,8.10
2016,03,12,17,18,4.80
2016,03,12,17,19,4.80
2016,03,12,17,20,8.10
2016,03,12,17,21,4.80
2016,03,12,17,22,6.40
2016,03,12,17,23,6.40
2016,03,12,17,24,8.10
2016,03,12,17,25,6.40
2016,03,12,17,26,8.10
2016,03,12,17,27,8.10
2016,03,12,17,28,6.40
2016,03,12,17,29,6.40
2016,03,12,17,30,6.40
2016,03,12,17,31,8.10
2016,03,12,17,32,6.40
2016,03,12,17,33,6.40
2016,03,12,17,34,6.40
2016,03,12,17,35,3.20
2016,03,12,17,36,3.20
2016,03,12,17,37,1.60
2016,03,12,17,38,1.60
2016,03,12,17,39,3.20
2016,03,12,17,40,8.10
2016,03,12,17,41,11.30
2016,03,12,17,42,8.10
2016,03,12,17,43,8.10
2016,03,12,17,44,9.60
2016,03,12,17,45,4.80
2016,03,12,17,46,8.10
2016,03,12,17,47,1.60
2016,03,12,17,48,4.80
2016,03,12,17,49,4.80
2016,03,12,17,50,4.80
2016,03,12,17,51,3.20
2016,03,12,17,52,6.40
2016,03,12,17,53,4.80
2016,03,12,17,54,4.80
2016,03,12,17,55,4.80
2016,03,12,17,56,4.80
2016,03,12,17,57,4.80
2016,03,12,17,58,6.40
2016,03,12,17,59,6.40
2016,03,12,18,00,4.80
2016,03,12,18,01,6.40
2016,03,12,18,02,11.30
2016,03,12,18,03,12.90
2016,03,12,18,04,8.10
2016,03,12,18,05,8.10
2016,03,12,18,06,4.80
2016,03,12,18,07,1.60
2016,03,12,18,11,8.10
2016,03,12,18,15,1.60
2016,03,12,18,19,1.60
2016,03,12,18,20,1.60
2016,03,12,18,21,3.20
2016,03,12,18,22,9.60
2016,03,12,18,23,11.30
2016,03,12,18,24,16.10
2016,03,12,18,25,11.30
2016,03,12,18,26,8.10
2016,03,12,18,27,8.10
2016,03,12,18,28,6.40
2016,03,12,18,29,12.90
2016,03,12,18,30,12.90
2016,03,12,18,31,9.60
2016,03,12,18,32,11.30
2016,03,12,18,33,9.60
2016,03,12,18,34,9.60
2016,03,12,18,35,9.60
2016,03,12,18,36,8.10
2016,03,12,18,37,3.20
2016,03,12,18,38,3.20
2016,03,12,18,39,9.60
2016,03,12,18,40,8.10
2016,03,12,18,46,1.60
2016,03,12,18,51,1.60
2016,03,12,18,52,1.60
2016,03,12,19,11,1.60
2016,03,12,19,15,3.20
2016,03,12,19,16,3.20
2016,03,12,19,17,1.60
2016,03,12,19,23,1.60
2016,03,12,19,25,1.60
2016,03,12,19,30,3.20
2016,03,12,19,31,6.40
2016,03,12,19,32,8.10
2016,03,12,19,33,4.80
2016,03,12,19,34,1.60
2016,03,12,19,37,3.20
2016,03,12,19,38,4.80
2016,03,12,19,39,4.80
2016,03,12,19,40,1.60
2016,03,12,19,49,1.60
2016,03,12,19,50,1.60
2016,03,12,20,04,1.60
2016,03,12,20,21,4.80
2016,03,12,20,22,3.20
2016,03,12,20,23,3.20
2016,03,12,20,30,1.60
2016,03,12,20,31,3.20
2016,03,12,20,35,1.60
2016,03,12,21,08,1.60
2016,03,12,22,33,1.60
2016,03,12,23,34,1.60
2016,03,12,23,35,1.60
2016,03,12,23,36,1.60
